Regional Weather Roundup
Issued by NWS

Home | Current Version | Previous Version | Text Only | Print | Product List | Glossary Off
Versions: 1 2 3 4 5 6 7 8 9 10 11 12 13 14 15 16 17 18 19 20 21 22 23 24 25 26 27 28 29 30 31 32 33 34 35 36 37 38 39 40 41 42 43 44 45 46 47 48 49 50

000
ASUS45 KABQ 020010
RWRNM
WEATHER ROUNDUP FOR NEW MEXICO
NATIONAL WEATHER SERVICE ALBUQUERQUE NM
600 PM MDT MON SEP 01 2014

NOTE: "FAIR" MEANS FEW OR NO CLOUDS BELOW 12,000 FEET AGL WITH NO
       SIGNIFICANT WEATHER OR OBSTRUCTIONS TO VISION.

      THIS PRODUCT IS RELEASED AS TWO VERSIONS.  ONE VERSION NEAR
      THE TOP OF THE HOUR CONTAINING PRELIMINARY DATA FROM ALBUQUERQUE
      AND OTHER STATIONS.  A FINAL VERSION WITH ADDITIONAL DATA IS
      ISSUED ABOUT 10 MINUTES AFTER THE HOUR.

NMZ501-503-504-510>518-020100-
NORTHWEST PLATEAU/NORTHCENTRAL MOUNTAINS

CITY           SKY/WX    TMP DP  RH WIND       PRES   REMARKS
FARMINGTON     SUNNY     88  28  11 W15G25    30.03S
6HR MIN TEMP:  82; 6HR MAX TEMP:  90;

LOS ALAMOS     SUNNY     81  30  15 W8G20     30.17S
SANTA FE       SUNNY     87  29  12 W17       30.08S
6HR MIN TEMP:  81; 6HR MAX TEMP:  89;

ANGEL FIRE     FAIR      74  26  16 SW15G26   30.25R

$$
NMZ402-403-502-505>509-020100-
WESTCENTRAL MOUNTAINS/SOUTHWEST MOUNTAINS

CITY           SKY/WX    TMP DP  RH WIND       PRES   REMARKS
GALLUP         SUNNY     86  33  15 W10G17    30.12F
6HR MIN TEMP:  81; 6HR MAX TEMP:  88;

SILVER CITY    SUNNY     90  32  12 W18       30.08S

$$
NMZ407-409-411-412-020100-
SOUTHERN DESERTS

CITY           SKY/WX    TMP DP  RH WIND       PRES   REMARKS
LORDSBURG      FAIR      91  36  14 W7G16     29.99S
DEMING         SUNNY     94  32  11 W14       29.96S
6HR MIN TEMP:  92; 6HR MAX TEMP:  97;

LAS CRUCES     SUNNY     95  30  10 SW10      29.98S
HOLLOMAN AFB   SUNNY     96  29   9 W6        29.93S
ALAMOGORDO     SUNNY     95  32  11 SW8       29.95S
T OR C         SUNNY     95  33  11 S7        29.97S
6HR MIN TEMP:  87; 6HR MAX TEMP:  95;


$$
NMZ519>523-020100-
CENTRAL VALLEYS/CENTRAL HIGHLANDS

CITY           SKY/WX    TMP DP  RH WIND       PRES   REMARKS
ALBUQUERQUE    MOSUNNY   90  35  14 VRB3      30.02F
6HR MIN TEMP:  83; 6HR MAX TEMP:  93;

DOUBLE EAGLE   MOSUNNY   88  37  16 VRB6      30.06F
MORIARTY ARPT  FAIR      86  33  14 W10G17    30.10S
6HR MIN TEMP:  83; 6HR MAX TEMP:  88;

CLINES CORNERS SUNNY     82  37  20 W13G25    30.15S
6HR MIN TEMP:  80; 6HR MAX TEMP:  85;

BELEN          FAIR      93  37  13 W9        30.00S
6HR MIN TEMP:  85; 6HR MAX TEMP:  94;

SOCORRO        FAIR      92  37  14 SE9       29.99S
6HR MIN TEMP:  87; 6HR MAX TEMP:  94;


$$
NMZ524>526-539-540-020100-
SOUTHCENTRAL MOUNTAINS

CITY           SKY/WX    TMP DP  RH WIND       PRES   REMARKS
RUIDOSO        SUNNY     82  32  16 NW6       30.18S

$$
NMZ527>531-020100-
NORTHEAST HIGHLANDS/NORTHEAST PLAINS

CITY           SKY/WX    TMP DP  RH WIND       PRES   REMARKS
LAS VEGAS      SUNNY     84  35  17 W16G23    30.10S
6HR MIN TEMP:  79; 6HR MAX TEMP:  87;

RATON          SUNNY     84  33  16 SW16G24   30.01S
6HR MIN TEMP:  77; 6HR MAX TEMP:  89;

CLAYTON        SUNNY     84  49  29 SE17G24   29.97F
6HR MIN TEMP:  77; 6HR MAX TEMP:  85;


$$
NMZ532>537-020100-
EASTCENTRAL PLAINS

CITY           SKY/WX    TMP DP  RH WIND       PRES   REMARKS
TUCUMCARI      SUNNY     98  34  10 W8        29.87F
6HR MIN TEMP:  86; 6HR MAX TEMP:  99;

CANNON AFB     SUNNY     95  40  14 SW9       29.93S
6HR MIN TEMP:  87; 6HR MAX TEMP:  97;

CLOVIS AIRPORT   N/A     95  41  15 W10G16    29.95R

$$
NMZ028-029-538-020100-
SOUTHEAST PLAINS

CITY           SKY/WX    TMP DP  RH WIND       PRES   REMARKS
ROSWELL        SUNNY     99  40  13 SE8       29.87F
6HR MIN TEMP:  93; 6HR MAX TEMP: 100;

CARLSBAD       SUNNY    102  34   9 CALM      29.84S HX  96
6HR MIN TEMP:  97; 6HR MAX TEMP: 105;

HOBBS          SUNNY     99  37  12 S6        29.89F


$$



USA.gov is the U.S. government's official web portal to all federal, state and local government web resources and services.